| time (UTC) | temp F | wind direction | speed knots | gust knots | rain 1hr in | rain 24hr in | rain mn in | humidity % | barometer mb |
| 20260504050503 | 50 | 123 | 0.9 | 2.6 | 0.00 | 0.02 | 0.02 | 85 | 1028.4 |
| 20260504050003 | 50 | 123 | 0.9 | 2.6 | 0.00 | 0.02 | 0.02 | 85 | 1028.3 |
| 20260504045503 | 50 | 123 | 0.9 | 1.7 | 0.00 | 0.02 | 0.02 | 85 | 1028.3 |
| 20260504045004 | 50 | 123 | 1.7 | 2.6 | 0.00 | 0.02 | 0.02 | 85 | 1028.4 |
| 20260504044503 | 50 | 125 | 1.7 | 2.6 | 0.00 | 0.02 | 0.02 | 84 | 1028.4 |
| 20260504044024 | 50 | 127 | 1.7 | 2.6 | 0.00 | 0.02 | 0.02 | 84 | 1028.4 |
| 20260504043503 | 50 | 127 | 0.9 | 2.6 | 0.00 | 0.02 | 0.02 | 84 | 1028.4 |
| 20260504043003 | 50 | 128 | 1.7 | 2.6 | 0.00 | 0.02 | 0.02 | 84 | 1028.4 |
| 20260504042524 | 50 | 128 | 1.7 | 2.6 | 0.00 | 0.02 | 0.02 | 85 | 1028.4 |
| 20260504042024 | 50 | 134 | 0.9 | 2.6 | 0.00 | 0.02 | 0.02 | 85 | 1028.4 |
| 20260504041524 | 50 | 141 | 0.9 | 2.6 | 0.00 | 0.02 | 0.02 | 85 | 1028.4 |
| 20260504041003 | 50 | 142 | 0.9 | 2.6 | 0.00 | 0.02 | 0.02 | 85 | 1028.5 |
| 20260504040504 | 50 | 143 | 1.7 | 2.6 | 0.00 | 0.02 | 0.02 | 85 | 1028.5 |
| 20260504040003 | 50 | 143 | 1.7 | 2.6 | 0.00 | 0.02 | 0.02 | 85 | 1028.5 |
| 20260504035503 | 50 | 143 | 0.9 | 3.5 | 0.00 | 0.02 | 0.02 | 84 | 1028.5 |
| 20260504035003 | 50 | 143 | 1.7 | 3.5 | 0.00 | 0.02 | 0.02 | 84 | 1028.5 |
| 20260504034503 | 50 | 143 | 1.7 | 3.5 | 0.00 | 0.02 | 0.02 | 85 | 1028.5 |
| 20260504034003 | 50 | 144 | 1.7 | 3.5 | 0.00 | 0.02 | 0.02 | 85 | 1028.6 |
| 20260504033503 | 50 | 145 | 1.7 | 3.5 | 0.00 | 0.02 | 0.02 | 84 | 1028.5 |
| 20260504033003 | 50 | 140 | 1.7 | 3.5 | 0.00 | 0.02 | 0.02 | 84 | 1028.6 |
| 20260504032503 | 51 | 128 | 1.7 | 3.5 | 0.00 | 0.02 | 0.02 | 84 | 1028.6 |
| 20260504032004 | 51 | 130 | 1.7 | 3.5 | 0.00 | 0.02 | 0.02 | 84 | 1028.6 |
| 20260504031503 | 51 | 143 | 1.7 | 3.5 | 0.00 | 0.02 | 0.02 | 83 | 1028.7 |
| 20260504031003 | 51 | 153 | 1.7 | 3.5 | 0.00 | 0.02 | 0.02 | 82 | 1028.7 |
| 20260504030503 | 52 | 168 | 1.7 | 4.3 | 0.00 | 0.02 | 0.02 | 82 | 1028.6 |
| 20260504030003 | 52 | 173 | 2.6 | 4.3 | 0.00 | 0.02 | 0.02 | 82 | 1028.6 |
| 20260504025503 | 52 | 152 | 2.6 | 4.3 | 0.00 | 0.02 | 0.02 | 83 | 1028.7 |
| 20260504025003 | 52 | 141 | 2.6 | 4.3 | 0.00 | 0.02 | 0.02 | 82 | 1028.7 |
| 20260504024503 | 52 | 135 | 2.6 | 4.3 | 0.00 | 0.02 | 0.02 | 82 | 1028.7 |
| 20260504024025 | 52 | 136 | 2.6 | 4.3 | 0.00 | 0.02 | 0.02 | 82 | 1028.7 |
| 20260504023503 | 52 | 151 | 2.6 | 4.3 | 0.00 | 0.02 | 0.02 | 82 | 1028.7 |
| 20260504023004 | 52 | 167 | 2.6 | 4.3 | 0.00 | 0.02 | 0.02 | 81 | 1028.7 |
| 20260504022503 | 52 | 154 | 2.6 | 4.3 | 0.00 | 0.02 | 0.02 | 81 | 1028.8 |
| 20260504022003 | 53 | 125 | 2.6 | 6.1 | 0.00 | 0.02 | 0.02 | 80 | 1028.8 |
| 20260504021503 | 52 | 119 | 2.6 | 6.1 | 0.00 | 0.02 | 0.02 | 81 | 1028.8 |
| 20260504021003 | 53 | 128 | 2.6 | 6.1 | 0.00 | 0.02 | 0.02 | 81 | 1028.9 |
| 20260504020503 | 53 | 143 | 2.6 | 5.2 | 0.00 | 0.02 | 0.02 | 79 | 1028.9 |
| 20260504020004 | 53 | 161 | 2.6 | 5.2 | 0.00 | 0.02 | 0.02 | 80 | 1029.0 |
| 20260504015503 | 53 | 163 | 2.6 | 4.3 | 0.00 | 0.02 | 0.02 | 79 | 1029.0 |
| 20260504015003 | 54 | 165 | 2.6 | 5.2 | 0.00 | 0.02 | 0.02 | 78 | 1029.0 |
| 20260504014503 | 54 | 164 | 2.6 | 5.2 | 0.00 | 0.02 | 0.02 | 78 | 1028.9 |
| 20260504014003 | 54 | 155 | 2.6 | 4.3 | 0.00 | 0.02 | 0.02 | 78 | 1029.1 |
| 20260504013503 | 54 | 168 | 2.6 | 6.1 | 0.00 | 0.02 | 0.02 | 76 | 1029.1 |
| 20260504013003 | 56 | 173 | 1.7 | 6.1 | 0.00 | 0.02 | 0.02 | 75 | 1029.1 |
| 20260504012524 | 56 | 168 | 1.7 | 4.3 | 0.00 | 0.02 | 0.02 | 75 | 1029.2 |
| 20260504012003 | 56 | 149 | 1.7 | 4.3 | 0.00 | 0.02 | 0.02 | 77 | 1029.3 |
| 20260504011503 | 55 | 132 | 2.6 | 5.2 | 0.00 | 0.02 | 0.02 | 76 | 1029.3 |
| 20260504011003 | 55 | 142 | 2.6 | 5.2 | 0.00 | 0.02 | 0.02 | 77 | 1029.3 |
| 20260504010524 | 55 | 130 | 2.6 | 6.1 | 0.00 | 0.02 | 0.02 | 77 | 1029.5 |
| 20260504010004 | 54 | 142 | 2.6 | 6.1 | 0.00 | 0.02 | 0.02 | 77 | 1029.5 |
| 20260504005524 | 55 | 155 | 2.6 | 5.2 | 0.02 | 0.02 | 0.02 | 76 | 1029.7 |
| 20260504005004 | 55 | 133 | 2.6 | 5.2 | 0.02 | 0.02 | 0.02 | 77 | 1029.8 |
| 20260504004503 | 54 | 125 | 2.6 | 6.1 | 0.02 | 0.02 | 0.02 | 78 | 1029.8 |
| 20260504004004 | 54 | 131 | 2.6 | 6.1 | 0.02 | 0.02 | 0.02 | 75 | 1030.0 |
| 20260504003525 | 54 | 138 | 1.7 | 4.3 | 0.02 | 0.02 | 0.02 | 77 | 1030.0 |
| 20260504003003 | 54 | 141 | 1.7 | 3.5 | 0.02 | 0.02 | 0.02 | 77 | 1030.1 |
| 20260504002503 | 54 | 158 | 1.7 | 4.3 | 0.02 | 0.02 | 0.02 | 76 | 1030.2 |
| 20260504002003 | 54 | 147 | 2.6 | 6.1 | 0.02 | 0.02 | 0.02 | 76 | 1030.3 |
| 20260504001524 | 53 | 128 | 2.6 | 7.0 | 0.02 | 0.02 | 0.02 | 77 | 1030.4 |
| 20260504001024 | 54 | 143 | 2.6 | 7.0 | 0.02 | 0.02 | 0.02 | 76 | 1030.5 |
| 20260504000523 | 54 | 152 | 2.6 | 7.8 | 0.02 | 0.02 | 0.02 | 76 | 1030.6 |
| 20260504000002 | 53 | 136 | 2.6 | 7.8 | 0.02 | 0.02 | 0.02 | 76 | 1030.6 |
| 20260503235502 | 53 | 144 | 2.6 | 5.2 | 0.00 | 0.00 | 0.00 | 74 | 1030.6 |
| 20260503235002 | 54 | 169 | 2.6 | 5.2 | 0.00 | 0.00 | 0.00 | 75 | 1030.7 |
| 20260503234502 | 54 | 172 | 2.6 | 5.2 | 0.00 | 0.00 | 0.00 | 73 | 1030.8 |
| 20260503234002 | 54 | 164 | 2.6 | 5.2 | 0.00 | 0.00 | 0.00 | 74 | 1030.7 |
| 20260503233523 | 54 | 153 | 2.6 | 5.2 | 0.00 | 0.00 | 0.00 | 75 | 1030.8 |
| 20260503233002 | 54 | 174 | 2.6 | 7.0 | 0.00 | 0.00 | 0.00 | 73 | 1030.7 |
| 20260503232502 | 54 | 202 | 2.6 | 7.0 | 0.00 | 0.00 | 0.00 | 73 | 1030.8 |
| 20260503232002 | 54 | 202 | 2.6 | 4.3 | 0.00 | 0.00 | 0.00 | 70 | 1030.8 |
| 20260503231502 | 53 | 199 | 2.6 | 4.3 | 0.00 | 0.00 | 0.00 | 70 | 1030.8 |
| 20260503231002 | 53 | 185 | 2.6 | 5.2 | 0.00 | 0.00 | 0.00 | 71 | 1030.9 |
| 20260503230502 | 53 | 158 | 1.7 | 5.2 | 0.00 | 0.00 | 0.00 | 70 | 1030.9 |
| 20260503230002 | 53 | 154 | 1.7 | 5.2 | 0.00 | 0.00 | 0.00 | 70 | 1030.8 |
| 20260503225503 | 53 | 155 | 2.6 | 4.3 | 0.00 | 0.00 | 0.00 | 70 | 1030.8 |
| 20260503225002 | 52 | 151 | 1.7 | 4.3 | 0.00 | 0.00 | 0.00 | 71 | 1030.8 |
| 20260503224502 | 52 | 172 | 1.7 | 4.3 | 0.00 | 0.00 | 0.00 | 72 | 1030.9 |
| 20260503224002 | 53 | 196 | 1.7 | 3.5 | 0.00 | 0.00 | 0.00 | 73 | 1030.8 |
| 20260503223502 | 52 | 186 | 1.7 | 4.3 | 0.00 | 0.00 | 0.00 | 75 | 1030.7 |
| 20260503223024 | 52 | 172 | 1.7 | 4.3 | 0.00 | 0.00 | 0.00 | 77 | 1030.7 |
| 20260503222502 | 51 | 173 | 0.9 | 3.5 | 0.00 | 0.00 | 0.00 | 76 | 1030.7 |
| 20260503222002 | 51 | 210 | 0.9 | 2.6 | 0.00 | 0.00 | 0.00 | 77 | 1030.7 |
| 20260503221502 | 52 | 243 | 0.9 | 2.6 | 0.00 | 0.00 | 0.00 | 78 | 1030.7 |
| 20260503221003 | 51 | 261 | 0.9 | 2.6 | 0.00 | 0.00 | 0.00 | 78 | 1030.6 |
| 20260503220503 | 50 | 272 | 0.9 | 2.6 | 0.00 | 0.00 | 0.00 | 80 | 1030.6 |
| 20260503220023 | 50 | 274 | 0.9 | 2.6 | 0.00 | 0.00 | 0.00 | 80 | 1030.6 |
| 20260503215502 | 49 | 279 | 0.9 | 2.6 | 0.00 | 0.00 | 0.00 | 81 | 1030.7 |
| 20260503215002 | 48 | 284 | 0.9 | 2.6 | 0.00 | 0.00 | 0.00 | 81 | 1030.7 |
| 20260503214502 | 48 | 286 | 0.9 | 1.7 | 0.00 | 0.00 | 0.00 | 82 | 1030.7 |
| 20260503214002 | 48 | 290 | 0.9 | 2.6 | 0.00 | 0.00 | 0.00 | 84 | 1030.7 |
| 20260503213502 | 47 | 292 | 0.9 | 2.6 | 0.00 | 0.00 | 0.00 | 84 | 1030.7 |
| 20260503213002 | 46 | 292 | 0.9 | 1.7 | 0.00 | 0.00 | 0.00 | 85 | 1030.6 |
| 20260503212524 | 45 | 293 | 0.9 | 1.7 | 0.00 | 0.00 | 0.00 | 86 | 1030.6 |
| 20260503212002 | 44 | 293 | 0.9 | 1.7 | 0.00 | 0.00 | 0.00 | 86 | 1030.7 |
| 20260503211523 | 43 | 293 | 0.9 | 1.7 | 0.00 | 0.00 | 0.00 | 87 | 1030.7 |
| 20260503211003 | 42 | 293 | 0.9 | 1.7 | 0.00 | 0.00 | 0.00 | 87 | 1030.7 |
| 20260503210502 | 41 | 293 | 0.0 | 1.7 | 0.00 | 0.00 | 0.00 | 87 | 1030.7 |
| 20260503210004 | 40 | 293 | 0.0 | 1.7 | 0.00 | 0.00 | 0.00 | 88 | 1030.7 |
| 20260503205524 | 40 | 293 | 0.0 | 0.9 | 0.00 | 0.00 | 0.00 | 88 | 1030.7 |
| 20260503205002 | 38 | 293 | 0.9 | 1.7 | 0.00 | 0.00 | 0.00 | 88 | 1030.8 |
| 20260503204523 | 38 | 293 | 0.9 | 1.7 | 0.00 | 0.00 | 0.00 | 88 | 1030.7 |
| 20260503204024 | 36 | 293 | 0.0 | 1.7 | 0.00 | 0.00 | 0.00 | 88 | 1030.7 |
| 20260503203503 | 36 | 293 | 0.0 | 0.9 | 0.00 | 0.00 | 0.00 | 88 | 1030.6 |
| 20260503203002 | 35 | 293 | 0.9 | 1.7 | 0.00 | 0.00 | 0.00 | 88 | 1030.5 |
| 20260503202523 | 34 | 293 | 0.9 | 1.7 | 0.00 | 0.00 | 0.00 | 88 | 1030.5 |
| 20260503202002 | 33 | 293 | 0.0 | 1.7 | 0.00 | 0.00 | 0.00 | 88 | 1030.4 |
| 20260503201502 | 33 | 293 | 0.0 | 1.7 | 0.00 | 0.00 | 0.00 | 88 | 1030.3 |
| 20260503201003 | 31 | 293 | 0.0 | 1.7 | 0.00 | 0.00 | 0.00 | 88 | 1030.3 |
| 20260503200503 | 31 | 293 | 0.0 | 0.9 | 0.00 | 0.00 | 0.00 | 88 | 1030.3 |
| 20260503200002 | 31 | 293 | 0.0 | 0.9 | 0.00 | 0.01 | 0.00 | 88 | 1030.2 |
| 20260503195503 | 30 | 293 | 0.9 | 0.9 | 0.00 | 0.01 | 0.00 | 88 | 1030.1 |
| 20260503195002 | 29 | 293 | 0.9 | 1.7 | 0.00 | 0.01 | 0.00 | 88 | 1030.1 |
| 20260503194502 | 29 | 293 | 0.9 | 1.7 | 0.00 | 0.01 | 0.00 | 88 | 1030.2 |
| 20260503194003 | 29 | 293 | 0.0 | 1.7 | 0.00 | 0.01 | 0.00 | 88 | 1030.1 |
| 20260503193523 | 29 | 293 | 0.0 | 1.7 | 0.00 | 0.01 | 0.00 | 88 | 1030.0 |
| 20260503193002 | 29 | 293 | 0.9 | 1.7 | 0.00 | 0.01 | 0.00 | 88 | 1030.0 |
| 20260503192502 | 29 | 293 | 0.9 | 2.6 | 0.00 | 0.01 | 0.00 | 88 | 1030.0 |
| 20260503192003 | 29 | 292 | 0.9 | 2.6 | 0.00 | 0.01 | 0.00 | 88 | 1029.9 |
| 20260503191502 | 29 | 291 | 0.9 | 2.6 | 0.00 | 0.01 | 0.00 | 88 | 1029.9 |
| 20260503191002 | 29 | 290 | 0.9 | 1.7 | 0.00 | 0.01 | 0.00 | 88 | 1029.9 |
| 20260503190502 | 29 | 290 | 0.9 | 1.7 | 0.00 | 0.01 | 0.00 | 88 | 1030.0 |
| 20260503190024 | 29 | 290 | 0.9 | 2.6 | 0.00 | 0.01 | 0.00 | 88 | 1029.9 |
| 20260503185503 | 29 | 290 | 0.9 | 2.6 | 0.00 | 0.01 | 0.00 | 88 | 1029.9 |
| 20260503185002 | 29 | 290 | 0.9 | 1.7 | 0.00 | 0.01 | 0.00 | 88 | 1030.0 |
| 20260503184503 | 29 | 290 | 0.9 | 1.7 | 0.00 | 0.01 | 0.00 | 88 | 1030.0 |
| 20260503184003 | 29 | 290 | 0.9 | 1.7 | 0.00 | 0.01 | 0.00 | 88 | 1030.0 |
| 20260503183524 | 29 | 290 | 0.9 | 1.7 | 0.00 | 0.01 | 0.00 | 88 | 1030.0 |
| 20260503183002 | 29 | 290 | 1.7 | 2.6 | 0.00 | 0.01 | 0.00 | 88 | 1030.0 |
| 20260503182503 | 29 | 290 | 0.9 | 2.6 | 0.00 | 0.01 | 0.00 | 88 | 1030.0 |
| 20260503182003 | 29 | 289 | 0.9 | 2.6 | 0.00 | 0.01 | 0.00 | 88 | 1029.9 |
| 20260503181524 | 29 | 289 | 0.9 | 1.7 | 0.00 | 0.01 | 0.00 | 88 | 1030.0 |
| 20260503181003 | 29 | 289 | 0.0 | 1.7 | 0.00 | 0.01 | 0.00 | 88 | 1030.0 |
| 20260503180502 | 29 | 289 | 0.9 | 0.9 | 0.00 | 0.01 | 0.00 | 88 | 1030.0 |
| 20260503180003 | 29 | 289 | 0.9 | 1.7 | 0.00 | 0.01 | 0.00 | 88 | 1029.9 |
| 20260503175502 | 29 | 289 | 0.9 | 1.7 | 0.00 | 0.01 | 0.00 | 88 | 1029.9 |
| 20260503175003 | 29 | 289 | 0.9 | 1.7 | 0.00 | 0.01 | 0.00 | 88 | 1029.8 |
| 20260503174503 | 29 | 289 | 0.9 | 2.6 | 0.00 | 0.01 | 0.00 | 88 | 1029.8 |
| 20260503174002 | 29 | 279 | 0.9 | 3.5 | 0.00 | 0.01 | 0.00 | 88 | 1029.7 |
| 20260503173503 | 28 | 249 | 0.9 | 3.5 | 0.00 | 0.01 | 0.00 | 88 | 1029.7 |
| 20260503173003 | 29 | 232 | 0.9 | 1.7 | 0.00 | 0.01 | 0.00 | 88 | 1029.7 |
| 20260503172503 | 29 | 232 | 0.9 | 1.7 | 0.00 | 0.01 | 0.00 | 88 | 1029.7 |
| 20260503172023 | 29 | 232 | 1.7 | 1.7 | 0.00 | 0.01 | 0.00 | 88 | 1029.7 |
| 20260503171503 | 29 | 232 | 2.6 | 2.6 | 0.00 | 0.01 | 0.00 | 88 | 1029.7 |
| 20260503171024 | 29 | 248 | 2.6 | 2.6 | 0.00 | 0.01 | 0.00 | 87 | 1029.7 |
| 20260503170502 | 29 | 263 | 1.7 | 2.6 | 0.00 | 0.01 | 0.00 | 87 | 1029.7 |
| 20260503150503 | 32 | 274 | 0.9 | 1.7 | 0.00 | 0.01 | 0.00 | 87 | 1029.7 |
| 20260503131003 | 33 | 217 | 1.7 | 3.5 | 0.00 | 0.01 | 0.00 | 86 | 1030.2 |
| 20260503130503 | 33 | 237 | 0.9 | 3.5 | 0.00 | 0.01 | 0.00 | 87 | 1030.1 |
| 20260503110503 | 33 | 8 | 0.0 | 0.9 | 0.00 | 0.01 | 0.01 | 86 | 1030.4 |
| 20260503081503 | 41 | 358 | 0.9 | 1.7 | 0.00 | 0.01 | 0.01 | 83 | 1030.0 |
| 20260503081003 | 41 | 358 | 0.9 | 1.7 | 0.00 | 0.01 | 0.01 | 83 | 1030.0 |
| 20260503080503 | 41 | 357 | 0.9 | 2.6 | 0.00 | 0.01 | 0.01 | 83 | 1030.0 |
| 20260503072503 | 42 | 358 | 0.9 | 1.7 | 0.00 | 0.01 | 0.01 | 78 | 1029.9 |
| 20260503072024 | 42 | 358 | 0.9 | 1.7 | 0.00 | 0.01 | 0.01 | 77 | 1029.9 |
| 20260503071503 | 43 | 358 | 0.9 | 1.7 | 0.00 | 0.01 | 0.01 | 77 | 1029.9 |
| 20260503071003 | 43 | 358 | 0.9 | 2.6 | 0.00 | 0.01 | 0.01 | 76 | 1030.0 |
| 20260503070503 | 43 | 358 | 1.7 | 2.6 | 0.00 | 0.01 | 0.01 | 75 | 1029.9 |